contact: severine.martini@mio.osupytheas.fr, dominique.lefevre@mio.osupytheas.fr
Project:EMSO Ligure-ouest http://www.emso-fr.org/EMSO-France
Sensor Microcat Sea-Bird SBE37 SMP,  Serial 57510 
DOI : "https://doi.org/10.17882/97948" 
Title:EMSO Ligure Ouest : Data Bathybot capteur Microcat - deploiement 2023-04-28
Datetime,Profondeur,Latitude,Longitude,Temperature,Conductivite,Pression,Salinite
time,m,degree_north,degree_east,degree_C,S/m,db,PSU 
2023-11-08T00:00:49,2420,42.8014,5.9826,13.2985,4.35355,2453.672,36.1796
2023-11-08T00:03:49,2420,42.8014,5.9826,13.2994,4.35441,2453.672,36.1868
2023-11-08T00:06:49,2420,42.8014,5.9826,13.2982,4.35401,2453.687,36.1842
2023-11-08T00:09:49,2420,42.8014,5.9826,13.2988,4.35388,2453.672,36.1824
2023-11-08T00:12:49,2420,42.8014,5.9826,13.2979,4.35257,2453.657,36.1709
2023-11-08T00:15:49,2420,42.8014,5.9826,13.2993,4.35363,2453.672,36.1796
2023-11-08T00:18:49,2420,42.8014,5.9826,13.3019,4.35225,2453.717,36.1642
2023-11-08T00:21:49,2420,42.8014,5.9826,13.3002,4.35412,2453.695,36.1833
2023-11-08T00:24:49,2420,42.8014,5.9826,13.3016,4.35375,2453.717,36.1786
2023-11-08T00:27:49,2420,42.8014,5.9826,13.3005,4.35487,2453.687,36.1900
2023-11-08T00:30:49,2420,42.8014,5.9826,13.3093,4.35451,2453.695,36.1784
2023-11-08T00:33:49,2420,42.8014,5.9826,13.3012,4.35393,2453.672,36.1805
2023-11-08T00:36:49,2420,42.8014,5.9826,13.3040,4.35341,2453.672,36.1732
2023-11-08T00:39:49,2420,42.8014,5.9826,13.2986,4.35458,2453.649,36.1891
2023-11-08T00:42:49,2420,42.8014,5.9826,13.2982,4.35472,2453.672,36.1908
2023-11-08T00:45:49,2420,42.8014,5.9826,13.2986,4.35321,2453.709,36.1763
2023-11-08T00:48:49,2420,42.8014,5.9826,13.2978,4.35229,2453.672,36.1684
2023-11-08T00:51:49,2420,42.8014,5.9826,13.2975,4.35367,2453.672,36.1816
2023-11-08T00:54:49,2420,42.8014,5.9826,13.2975,4.35429,2453.672,36.1874
2023-11-08T00:57:49,2420,42.8014,5.9826,13.2975,4.35435,2453.672,36.1879
2023-11-08T01:00:49,2420,42.8014,5.9826,13.2979,4.35273,2453.695,36.1725
2023-11-08T01:03:49,2420,42.8014,5.9826,13.2978,4.35402,2453.695,36.1846
2023-11-08T01:06:49,2420,42.8014,5.9826,13.2982,4.35305,2453.672,36.1752
2023-11-08T01:09:49,2420,42.8014,5.9826,13.3088,4.35336,2453.649,36.1682
2023-11-08T01:12:49,2420,42.8014,5.9826,13.3014,4.35440,2453.672,36.1849
2023-11-08T01:15:49,2420,42.8014,5.9826,13.2976,4.35490,2453.680,36.1930
2023-11-08T01:18:49,2420,42.8014,5.9826,13.2976,4.35388,2453.695,36.1835
2023-11-08T01:21:49,2420,42.8014,5.9826,13.2971,4.35352,2453.695,36.1805
2023-11-08T01:24:49,2420,42.8014,5.9826,13.2979,4.35407,2453.695,36.1850
2023-11-08T01:27:49,2420,42.8014,5.9826,13.2978,4.35486,2453.695,36.1925
2023-11-08T01:30:49,2420,42.8014,5.9826,13.2978,4.35350,2453.672,36.1798
2023-11-08T01:33:49,2420,42.8014,5.9826,13.2979,4.35255,2453.695,36.1707
2023-11-08T01:36:49,2420,42.8014,5.9826,13.2975,4.35388,2453.695,36.1835
2023-11-08T01:39:49,2420,42.8014,5.9826,13.2977,4.35307,2453.672,36.1759
2023-11-08T01:42:49,2420,42.8014,5.9826,13.2982,4.35449,2453.695,36.1887
2023-11-08T01:45:49,2420,42.8014,5.9826,13.2975,4.35461,2453.740,36.1904
2023-11-08T01:48:49,2420,42.8014,5.9826,13.2979,4.35391,2453.717,36.1834
2023-11-08T01:51:49,2420,42.8014,5.9826,13.2990,4.35341,2453.695,36.1777
2023-11-08T01:54:49,2420,42.8014,5.9826,13.2979,4.35345,2453.657,36.1792
2023-11-08T01:57:49,2420,42.8014,5.9826,13.3002,4.35413,2453.695,36.1834
2023-11-08T02:00:50,2420,42.8014,5.9826,13.2975,4.35360,2453.717,36.1810
2023-11-08T02:03:49,2420,42.8014,5.9826,13.2980,4.35463,2453.695,36.1901
2023-11-08T02:06:49,2420,42.8014,5.9826,13.2978,4.35370,2453.680,36.1816
2023-11-08T02:09:49,2420,42.8014,5.9826,13.3004,4.35396,2453.717,36.1815
2023-11-08T02:12:49,2420,42.8014,5.9826,13.2997,4.35303,2453.695,36.1736
2023-11-08T02:15:49,2420,42.8014,5.9826,13.2975,4.35189,2453.717,36.1650
2023-11-08T02:18:49,2420,42.8014,5.9826,13.3001,4.35352,2453.695,36.1777
2023-11-08T02:21:49,2420,42.8014,5.9826,13.2992,4.35286,2453.695,36.1724
2023-11-08T02:24:49,2420,42.8014,5.9826,13.2980,4.35352,2453.717,36.1797
2023-11-08T02:27:49,2420,42.8014,5.9826,13.2985,4.35302,2453.717,36.1746
2023-11-08T02:30:50,2420,42.8014,5.9826,13.2983,4.35380,2453.717,36.1820
2023-11-08T02:33:49,2420,42.8014,5.9826,13.2998,4.35305,2453.717,36.1737
2023-11-08T02:36:49,2420,42.8014,5.9826,13.2982,4.35363,2453.717,36.1806
2023-11-08T02:39:49,2420,42.8014,5.9826,13.2980,4.35349,2453.717,36.1794
2023-11-08T02:42:49,2420,42.8014,5.9826,13.2984,4.35261,2453.762,36.1709
2023-11-08T02:45:49,2420,42.8014,5.9826,13.2988,4.35332,2453.717,36.1771
2023-11-08T02:48:49,2420,42.8014,5.9826,13.2976,4.35362,2453.740,36.1811
2023-11-08T02:51:49,2420,42.8014,5.9826,13.2976,4.35252,2453.748,36.1707
2023-11-08T02:54:49,2420,42.8014,5.9826,13.2992,4.35357,2453.717,36.1790
2023-11-08T02:57:49,2420,42.8014,5.9826,13.2991,4.35307,2453.717,36.1744
2023-11-08T03:00:49,2420,42.8014,5.9826,13.2993,4.35344,2453.717,36.1778
2023-11-08T03:03:49,2420,42.8014,5.9826,13.2993,4.35385,2453.740,36.1816
2023-11-08T03:06:49,2420,42.8014,5.9826,13.2985,4.35494,2453.740,36.1925
2023-11-08T03:09:49,2420,42.8014,5.9826,13.3004,4.35282,2453.717,36.1710
2023-11-08T03:12:49,2420,42.8014,5.9826,13.3005,4.35190,2453.740,36.1622
2023-11-08T03:15:49,2420,42.8014,5.9826,13.2975,4.35318,2453.717,36.1770
2023-11-08T03:18:49,2420,42.8014,5.9826,13.2993,4.35320,2453.740,36.1756
2023-11-08T03:21:49,2420,42.8014,5.9826,13.2975,4.35203,2453.695,36.1664
2023-11-08T03:24:49,2420,42.8014,5.9826,13.2980,4.35268,2453.762,36.1718
2023-11-08T03:27:49,2420,42.8014,5.9826,13.2975,4.35206,2453.740,36.1666
2023-11-08T03:30:49,2420,42.8014,5.9826,13.2985,4.35391,2453.717,36.1830
2023-11-08T03:33:49,2420,42.8014,5.9826,13.2988,4.35352,2453.748,36.1790
2023-11-08T03:36:49,2420,42.8014,5.9826,13.2980,4.35414,2453.717,36.1856
2023-11-08T03:39:49,2420,42.8014,5.9826,13.3006,4.35425,2453.717,36.1841
2023-11-08T03:42:49,2420,42.8014,5.9826,13.2978,4.35455,2453.740,36.1896
2023-11-08T03:45:49,2420,42.8014,5.9826,13.2977,4.35386,2453.740,36.1832
2023-11-08T03:48:49,2420,42.8014,5.9826,13.2979,4.35336,2453.717,36.1783
2023-11-08T03:51:49,2420,42.8014,5.9826,13.2974,4.35279,2453.702,36.1734
2023-11-08T03:54:49,2420,42.8014,5.9826,13.2977,4.35292,2453.717,36.1744
2023-11-08T03:57:49,2420,42.8014,5.9826,13.2986,4.35381,2453.740,36.1819
2023-11-08T04:00:49,2420,42.8014,5.9826,13.2978,4.35330,2453.695,36.1778
2023-11-08T04:03:49,2420,42.8014,5.9826,13.2977,4.35314,2453.717,36.1765
2023-11-08T04:06:49,2420,42.8014,5.9826,13.2975,4.35341,2453.740,36.1791
2023-11-08T04:09:50,2420,42.8014,5.9826,13.2977,4.35331,2453.717,36.1781
2023-11-08T04:12:49,2420,42.8014,5.9826,13.2978,4.35351,2453.740,36.1798
2023-11-08T04:15:49,2420,42.8014,5.9826,13.2980,4.35335,2453.740,36.1781
2023-11-08T04:18:49,2420,42.8014,5.9826,13.2982,4.35317,2453.725,36.1763
2023-11-08T04:21:49,2420,42.8014,5.9826,13.2977,4.35214,2453.717,36.1672
2023-11-08T04:24:49,2420,42.8014,5.9826,13.2978,4.35271,2453.702,36.1724
2023-11-08T04:27:49,2420,42.8014,5.9826,13.2978,4.35318,2453.740,36.1768
2023-11-08T04:30:49,2420,42.8014,5.9826,13.2975,4.35274,2453.740,36.1729
2023-11-08T04:33:49,2420,42.8014,5.9826,13.2974,4.35203,2453.740,36.1663
2023-11-08T04:36:49,2420,42.8014,5.9826,13.2979,4.35241,2453.695,36.1695
2023-11-08T04:39:49,2420,42.8014,5.9826,13.2976,4.35255,2453.740,36.1710
2023-11-08T04:42:49,2420,42.8014,5.9826,13.2975,4.35370,2453.740,36.1819
2023-11-08T04:45:49,2420,42.8014,5.9826,13.2981,4.35316,2453.740,36.1763
2023-11-08T04:48:49,2420,42.8014,5.9826,13.2982,4.35250,2453.740,36.1700
2023-11-08T04:51:49,2420,42.8014,5.9826,13.2976,4.35227,2453.717,36.1685
2023-11-08T04:54:49,2420,42.8014,5.9826,13.2978,4.35212,2453.717,36.1669
2023-11-08T04:57:49,2420,42.8014,5.9826,13.2976,4.35320,2453.740,36.1771
2023-11-08T05:00:49,2420,42.8014,5.9826,13.2975,4.35255,2453.717,36.1712
2023-11-08T05:03:49,2420,42.8014,5.9826,13.2979,4.35334,2453.702,36.1781
2023-11-08T05:06:49,2420,42.8014,5.9826,13.2978,4.35199,2453.717,36.1656
2023-11-08T05:09:49,2420,42.8014,5.9826,13.2978,4.35304,2453.717,36.1755
2023-11-08T05:12:49,2420,42.8014,5.9826,13.2975,4.35410,2453.717,36.1857
2023-11-08T05:15:49,2420,42.8014,5.9826,13.2979,4.35423,2453.695,36.1865
2023-11-08T05:18:49,2420,42.8014,5.9826,13.2974,4.35318,2453.740,36.1771
2023-11-08T05:21:49,2420,42.8014,5.9826,13.2975,4.35307,2453.717,36.1761
2023-11-08T05:24:49,2420,42.8014,5.9826,13.2975,4.35312,2453.695,36.1765
2023-11-08T05:27:49,2420,42.8014,5.9826,13.2973,4.35255,2453.695,36.1713
2023-11-08T05:30:49,2420,42.8014,5.9826,13.2978,4.35286,2453.717,36.1738
2023-11-08T05:33:49,2420,42.8014,5.9826,13.2979,4.35354,2453.740,36.1800
2023-11-08T05:36:49,2420,42.8014,5.9826,13.2979,4.35350,2453.695,36.1796
2023-11-08T05:39:49,2420,42.8014,5.9826,13.2978,4.35331,2453.717,36.1779
2023-11-08T05:42:49,2420,42.8014,5.9826,13.2973,4.35376,2453.695,36.1826
2023-11-08T05:45:49,2420,42.8014,5.9826,13.2978,4.35367,2453.695,36.1814
2023-11-08T05:48:49,2420,42.8014,5.9826,13.2982,4.35255,2453.695,36.1705
2023-11-08T05:51:49,2420,42.8014,5.9826,13.2977,4.35143,2453.717,36.1605
2023-11-08T05:54:49,2420,42.8014,5.9826,13.2978,4.35342,2453.695,36.1791
2023-11-08T05:57:49,2420,42.8014,5.9826,13.2978,4.35407,2453.695,36.1851
2023-11-08T06:00:49,2420,42.8014,5.9826,13.2978,4.35335,2453.717,36.1784
2023-11-08T06:03:49,2420,42.8014,5.9826,13.2975,4.35286,2453.717,36.1741
2023-11-08T06:06:49,2420,42.8014,5.9826,13.2997,4.35391,2453.695,36.1818
2023-11-08T06:09:49,2420,42.8014,5.9826,13.2979,4.35320,2453.717,36.1768
2023-11-08T06:12:49,2420,42.8014,5.9826,13.2981,4.35263,2453.717,36.1713
2023-11-08T06:15:49,2420,42.8014,5.9826,13.2986,4.35406,2453.717,36.1842
2023-11-08T06:18:49,2420,42.8014,5.9826,13.2979,4.35342,2453.732,36.1789
2023-11-08T06:21:50,2420,42.8014,5.9826,13.2978,4.35256,2453.717,36.1709
2023-11-08T06:24:49,2420,42.8014,5.9826,13.2977,4.35347,2453.717,36.1795
2023-11-08T06:27:49,2420,42.8014,5.9826,13.2983,4.35425,2453.695,36.1862
2023-11-08T06:30:49,2420,42.8014,5.9826,13.2979,4.35240,2453.717,36.1693
2023-11-08T06:33:49,2420,42.8014,5.9826,13.2973,4.35342,2453.717,36.1795
2023-11-08T06:36:49,2420,42.8014,5.9826,13.2978,4.35203,2453.695,36.1661
2023-11-08T06:39:49,2420,42.8014,5.9826,13.2978,4.35377,2453.740,36.1822
2023-11-08T06:42:49,2420,42.8014,5.9826,13.2977,4.35057,2453.709,36.1525
2023-11-08T06:45:49,2420,42.8014,5.9826,13.2979,4.35239,2453.717,36.1692
2023-11-08T06:48:49,2420,42.8014,5.9826,13.2976,4.35342,2453.680,36.1792
2023-11-08T06:51:49,2420,42.8014,5.9826,13.2984,4.35320,2453.717,36.1764
2023-11-08T06:54:49,2420,42.8014,5.9826,13.2980,4.35377,2453.717,36.1821
2023-11-08T06:57:49,2420,42.8014,5.9826,13.2981,4.35322,2453.717,36.1768
2023-11-08T07:00:50,2420,42.8014,5.9826,13.2976,4.35400,2453.717,36.1846
2023-11-08T07:03:49,2420,42.8014,5.9826,13.2984,4.35325,2453.695,36.1768
2023-11-08T07:06:49,2420,42.8014,5.9826,13.2979,4.35336,2453.695,36.1783
2023-11-08T07:09:49,2420,42.8014,5.9826,13.2991,4.35411,2453.702,36.1842
2023-11-08T07:12:49,2420,42.8014,5.9826,13.2980,4.35349,2453.702,36.1794
2023-11-08T07:15:49,2420,42.8014,5.9826,13.2975,4.35281,2453.740,36.1736
2023-11-08T07:18:49,2420,42.8014,5.9826,13.2978,4.35326,2453.717,36.1775
2023-11-08T07:21:49,2420,42.8014,5.9826,13.2974,4.35294,2453.695,36.1749
2023-11-08T07:24:49,2420,42.8014,5.9826,13.2975,4.35341,2453.702,36.1792
2023-11-08T07:27:49,2420,42.8014,5.9826,13.2979,4.35208,2453.717,36.1664
2023-11-08T07:30:50,2420,42.8014,5.9826,13.2977,4.35237,2453.695,36.1694
2023-11-08T07:33:49,2420,42.8014,5.9826,13.2977,4.35230,2453.680,36.1687
2023-11-08T07:36:49,2420,42.8014,5.9826,13.2975,4.35334,2453.732,36.1785
2023-11-08T07:39:49,2420,42.8014,5.9826,13.2982,4.35253,2453.672,36.1703
2023-11-08T07:42:49,2420,42.8014,5.9826,13.2980,4.35385,2453.672,36.1828
2023-11-08T07:45:49,2420,42.8014,5.9826,13.2977,4.35273,2453.680,36.1727
2023-11-08T07:48:49,2420,42.8014,5.9826,13.2980,4.35309,2453.695,36.1757
2023-11-08T07:51:49,2420,42.8014,5.9826,13.2979,4.35318,2453.672,36.1766
2023-11-08T07:54:49,2420,42.8014,5.9826,13.2979,4.35258,2453.672,36.1711
2023-11-08T07:57:49,2420,42.8014,5.9826,13.2975,4.35255,2453.695,36.1711
2023-11-08T08:00:49,2420,42.8014,5.9826,13.2985,4.35203,2453.695,36.1654
2023-11-08T08:03:49,2420,42.8014,5.9826,13.2985,4.35272,2453.717,36.1718
2023-11-08T08:06:49,2420,42.8014,5.9826,13.2978,4.35297,2453.695,36.1748
2023-11-08T08:09:49,2420,42.8014,5.9826,13.2984,4.35357,2453.695,36.1798
2023-11-08T08:12:49,2420,42.8014,5.9826,13.2978,4.35339,2453.695,36.1787
2023-11-08T08:15:49,2420,42.8014,5.9826,13.2987,4.35357,2453.717,36.1795
2023-11-08T08:18:49,2420,42.8014,5.9826,13.2985,4.35425,2453.672,36.1861
2023-11-08T08:21:49,2420,42.8014,5.9826,13.2984,4.35272,2453.649,36.1719
2023-11-08T08:24:49,2420,42.8014,5.9826,13.2986,4.35244,2453.649,36.1691
2023-11-08T08:27:49,2420,42.8014,5.9826,13.2979,4.35272,2453.672,36.1723
2023-11-08T08:30:49,2420,42.8014,5.9826,13.2982,4.35361,2453.672,36.1804
2023-11-08T08:33:49,2420,42.8014,5.9826,13.2979,4.35374,2453.672,36.1819
2023-11-08T08:36:49,2420,42.8014,5.9826,13.2975,4.35426,2453.680,36.1871
2023-11-08T08:39:49,2420,42.8014,5.9826,13.2986,4.35446,2453.672,36.1879
2023-11-08T08:42:49,2420,42.8014,5.9826,13.2979,4.35302,2453.695,36.1751
2023-11-08T08:45:49,2420,42.8014,5.9826,13.2978,4.35349,2453.672,36.1797
2023-11-08T08:48:49,2420,42.8014,5.9826,13.2984,4.35378,2453.657,36.1818
2023-11-08T08:51:49,2420,42.8014,5.9826,13.2985,4.35373,2453.672,36.1813
2023-11-08T08:54:49,2420,42.8014,5.9826,13.2983,4.35407,2453.672,36.1846
2023-11-08T08:57:49,2420,42.8014,5.9826,13.2978,4.35328,2453.695,36.1776
2023-11-08T09:00:50,2420,42.8014,5.9826,13.2989,4.35359,2453.672,36.1795
2023-11-08T09:03:49,2420,42.8014,5.9826,13.2980,4.35333,2453.649,36.1780
2023-11-08T09:06:49,2420,42.8014,5.9826,13.2978,4.35280,2453.657,36.1733
2023-11-08T09:09:49,2420,42.8014,5.9826,13.2977,4.35253,2453.672,36.1708
2023-11-08T09:12:49,2420,42.8014,5.9826,13.2980,4.35286,2453.695,36.1736
2023-11-08T09:15:49,2420,42.8014,5.9826,13.2976,4.35378,2453.649,36.1826
2023-11-08T09:18:49,2420,42.8014,5.9826,13.2985,4.35253,2453.672,36.1701
2023-11-08T09:21:49,2420,42.8014,5.9826,13.2978,4.35370,2453.672,36.1816
2023-11-08T09:24:49,2420,42.8014,5.9826,13.2978,4.35312,2453.672,36.1762
2023-11-08T09:27:49,2420,42.8014,5.9826,13.2977,4.35245,2453.672,36.1700
2023-11-08T09:30:49,2420,42.8014,5.9826,13.2975,4.35230,2453.680,36.1688
2023-11-08T09:33:49,2420,42.8014,5.9826,13.2975,4.35301,2453.649,36.1755
2023-11-08T09:36:49,2420,42.8014,5.9826,13.2976,4.35270,2453.672,36.1725
2023-11-08T09:39:49,2420,42.8014,5.9826,13.2976,4.35257,2453.649,36.1712
2023-11-08T09:42:49,2420,42.8014,5.9826,13.2975,4.35294,2453.672,36.1748
2023-11-08T09:45:49,2420,42.8014,5.9826,13.2979,4.35286,2453.672,36.1737
2023-11-08T09:48:49,2420,42.8014,5.9826,13.2977,4.35265,2453.672,36.1719
2023-11-08T09:51:49,2420,42.8014,5.9826,13.2978,4.35289,2453.649,36.1741
2023-11-08T09:54:49,2420,42.8014,5.9826,13.2979,4.35297,2453.657,36.1746
2023-11-08T09:57:49,2420,42.8014,5.9826,13.2991,4.35287,2453.649,36.1727
2023-11-08T10:00:49,2420,42.8014,5.9826,13.2983,4.35123,2453.657,36.1581
2023-11-08T10:03:49,2420,42.8014,5.9826,13.2988,4.35510,2453.649,36.1937
2023-11-08T10:06:49,2420,42.8014,5.9826,13.2985,4.35412,2453.672,36.1849
2023-11-08T10:09:49,2420,42.8014,5.9826,13.2982,4.35334,2453.695,36.1778
2023-11-08T10:12:49,2420,42.8014,5.9826,13.2988,4.35442,2453.649,36.1874
2023-11-08T10:15:49,2420,42.8014,5.9826,13.2986,4.35349,2453.664,36.1788
2023-11-08T10:18:49,2420,42.8014,5.9826,13.2985,4.35297,2453.672,36.1742
2023-11-08T10:21:49,2420,42.8014,5.9826,13.2988,4.35177,2453.649,36.1627
2023-11-08T10:24:49,2420,42.8014,5.9826,13.2983,4.35262,2453.649,36.1711
2023-11-08T10:27:50,2420,42.8014,5.9826,13.2981,4.35366,2453.672,36.1810
2023-11-08T10:30:49,2420,42.8014,5.9826,13.2985,4.35341,2453.672,36.1782
2023-11-08T10:33:49,2420,42.8014,5.9826,13.2991,4.35409,2453.672,36.1841
2023-11-08T10:36:49,2420,42.8014,5.9826,13.2992,4.35380,2453.672,36.1813
2023-11-08T10:39:49,2420,42.8014,5.9826,13.2983,4.35336,2453.635,36.1779
2023-11-08T10:42:49,2420,42.8014,5.9826,13.2985,4.35290,2453.672,36.1735
2023-11-08T10:45:49,2420,42.8014,5.9826,13.2991,4.35329,2453.649,36.1766
2023-11-08T10:48:49,2420,42.8014,5.9826,13.2988,4.35246,2453.672,36.1691
2023-11-08T10:51:49,2420,42.8014,5.9826,13.2986,4.35473,2453.672,36.1905
2023-11-08T10:54:49,2420,42.8014,5.9826,13.2982,4.35359,2453.695,36.1803
2023-11-08T10:57:49,2420,42.8014,5.9826,13.2985,4.35306,2453.657,36.1750
2023-11-08T11:00:50,2420,42.8014,5.9826,13.2984,4.35394,2453.672,36.1833
2023-11-08T11:03:49,2420,42.8014,5.9826,13.2982,4.35362,2453.687,36.1805
2023-11-08T11:06:49,2420,42.8014,5.9826,13.2984,4.35380,2453.657,36.1820
2023-11-08T11:09:49,2420,42.8014,5.9826,13.2987,4.35375,2453.627,36.1813
2023-11-08T11:12:49,2420,42.8014,5.9826,13.2988,4.35355,2453.649,36.1793
2023-11-08T11:15:49,2420,42.8014,5.9826,13.2982,4.35438,2453.649,36.1876
2023-11-08T11:18:49,2420,42.8014,5.9826,13.2988,4.35355,2453.635,36.1793
2023-11-08T11:21:49,2420,42.8014,5.9826,13.2986,4.35341,2453.657,36.1781
2023-11-08T11:24:49,2420,42.8014,5.9826,13.2991,4.35359,2453.649,36.1793
2023-11-08T11:27:49,2420,42.8014,5.9826,13.2984,4.35355,2453.672,36.1797
2023-11-08T11:30:49,2420,42.8014,5.9826,13.2991,4.35304,2453.657,36.1743
2023-11-08T11:33:49,2420,42.8014,5.9826,13.2985,4.35378,2453.635,36.1818
2023-11-08T11:36:49,2420,42.8014,5.9826,13.2989,4.35418,2453.649,36.1851
2023-11-08T11:39:49,2420,42.8014,5.9826,13.2984,4.35271,2453.687,36.1718
2023-11-08T11:42:49,2420,42.8014,5.9826,13.2992,4.35399,2453.672,36.1830
2023-11-08T11:45:49,2420,42.8014,5.9826,13.2984,4.35309,2453.635,36.1754
2023-11-08T11:48:49,2420,42.8014,5.9826,13.2987,4.35363,2453.672,36.1801
2023-11-08T11:51:49,2420,42.8014,5.9826,13.2982,4.35227,2453.672,36.1679
2023-11-08T11:54:49,2420,42.8014,5.9826,13.2982,4.35315,2453.649,36.1761
2023-11-08T11:57:49,2420,42.8014,5.9826,13.2982,4.35375,2453.672,36.1817
2023-11-08T12:00:49,2420,42.8014,5.9826,13.2982,4.35341,2453.672,36.1785
2023-11-08T12:03:49,2420,42.8014,5.9826,13.2991,4.35323,2453.672,36.1760
2023-11-08T12:06:49,2420,42.8014,5.9826,13.2978,4.35336,2453.672,36.1785
2023-11-08T12:09:49,2420,42.8014,5.9826,13.2995,4.35321,2453.672,36.1755
2023-11-08T12:12:49,2420,42.8014,5.9826,13.2986,4.35299,2453.695,36.1742
2023-11-08T12:15:49,2420,42.8014,5.9826,13.2983,4.35267,2453.695,36.1715
2023-11-08T12:18:49,2420,42.8014,5.9826,13.2980,4.35289,2453.657,36.1738
2023-11-08T12:21:49,2420,42.8014,5.9826,13.2985,4.35403,2453.717,36.1840
2023-11-08T12:24:49,2420,42.8014,5.9826,13.2983,4.35306,2453.717,36.1752
2023-11-08T12:27:49,2420,42.8014,5.9826,13.2991,4.35445,2453.695,36.1874
2023-11-08T12:30:49,2420,42.8014,5.9826,13.2986,4.35333,2453.687,36.1773
2023-11-08T12:33:49,2420,42.8014,5.9826,13.2982,4.35458,2453.687,36.1895
2023-11-08T12:36:49,2420,42.8014,5.9826,13.2985,4.35344,2453.672,36.1785
2023-11-08T12:39:49,2420,42.8014,5.9826,13.2987,4.35326,2453.680,36.1767
2023-11-08T12:42:49,2420,42.8014,5.9826,13.2982,4.35370,2453.672,36.1813
2023-11-08T12:45:49,2420,42.8014,5.9826,13.2982,4.35265,2453.709,36.1714
2023-11-08T12:48:49,2420,42.8014,5.9826,13.2985,4.35367,2453.672,36.1808
2023-11-08T12:51:49,2420,42.8014,5.9826,13.2988,4.35431,2453.695,36.1864
2023-11-08T12:54:49,2420,42.8014,5.9826,13.2991,4.35523,2453.672,36.1947
2023-11-08T12:57:49,2420,42.8014,5.9826,13.2986,4.35538,2453.717,36.1966
2023-11-08T13:00:49,2420,42.8014,5.9826,13.2981,4.35492,2453.672,36.1927
2023-11-08T13:03:49,2420,42.8014,5.9826,13.2985,4.35418,2453.695,36.1855
2023-11-08T13:06:49,2420,42.8014,5.9826,13.2988,4.35292,2453.695,36.1734
2023-11-08T13:09:49,2420,42.8014,5.9826,13.2979,4.35455,2453.695,36.1895
2023-11-08T13:12:49,2420,42.8014,5.9826,13.2980,4.35485,2453.695,36.1922
2023-11-08T13:15:49,2420,42.8014,5.9826,13.2979,4.35418,2453.672,36.1860
2023-11-08T13:18:49,2420,42.8014,5.9826,13.2980,4.35471,2453.672,36.1909
2023-11-08T13:21:49,2420,42.8014,5.9826,13.2982,4.35385,2453.702,36.1827
2023-11-08T13:24:49,2420,42.8014,5.9826,13.2977,4.35443,2453.672,36.1885
2023-11-08T13:27:49,2420,42.8014,5.9826,13.2989,4.35485,2453.717,36.1913
2023-11-08T13:30:49,2420,42.8014,5.9826,13.2980,4.35486,2453.732,36.1922
2023-11-08T13:33:49,2420,42.8014,5.9826,13.2977,4.35463,2453.717,36.1905
2023-11-08T13:36:49,2420,42.8014,5.9826,13.2986,4.35421,2453.717,36.1856
2023-11-08T13:39:49,2420,42.8014,5.9826,13.2986,4.35403,2453.695,36.1839
2023-11-08T13:42:49,2420,42.8014,5.9826,13.2984,4.35448,2453.695,36.1883
2023-11-08T13:45:49,2420,42.8014,5.9826,13.2977,4.35458,2453.717,36.1900
2023-11-08T13:48:49,2420,42.8014,5.9826,13.2989,4.35466,2453.680,36.1896
2023-11-08T13:51:49,2420,42.8014,5.9826,13.2977,4.35334,2453.732,36.1783
2023-11-08T13:54:49,2420,42.8014,5.9826,13.2982,4.35538,2453.762,36.1970
2023-11-08T13:57:49,2420,42.8014,5.9826,13.2977,4.35429,2453.717,36.1872
2023-11-08T14:00:49,2420,42.8014,5.9826,13.2978,4.35573,2453.717,36.2005
2023-11-08T14:03:49,2420,42.8014,5.9826,13.2983,4.35445,2453.717,36.1881
2023-11-08T14:06:49,2420,42.8014,5.9826,13.2982,4.35469,2453.717,36.1906
2023-11-08T14:09:49,2420,42.8014,5.9826,13.2979,4.35476,2453.740,36.1914
2023-11-08T14:12:49,2420,42.8014,5.9826,13.2982,4.35497,2453.740,36.1932
2023-11-08T14:15:49,2420,42.8014,5.9826,13.2979,4.35469,2453.740,36.1907
2023-11-08T14:18:49,2420,42.8014,5.9826,13.2982,4.35536,2453.725,36.1968
2023-11-08T14:21:49,2420,42.8014,5.9826,13.2985,4.35500,2453.740,36.1931
2023-11-08T14:24:50,2420,42.8014,5.9826,13.2985,4.35518,2453.762,36.1948
2023-11-08T14:27:49,2420,42.8014,5.9826,13.2978,4.35500,2453.740,36.1938
2023-11-08T14:30:49,2420,42.8014,5.9826,13.2984,4.35574,2453.740,36.2001
2023-11-08T14:33:49,2420,42.8014,5.9826,13.2985,4.35432,2453.777,36.1867
2023-11-08T14:36:49,2420,42.8014,5.9826,13.2985,4.35568,2453.748,36.1995
2023-11-08T14:39:49,2420,42.8014,5.9826,13.2980,4.35582,2453.717,36.2012
2023-11-08T14:42:49,2420,42.8014,5.9826,13.2987,4.35414,2453.762,36.1848
2023-11-08T14:45:49,2420,42.8014,5.9826,13.2983,4.35488,2453.740,36.1922
2023-11-08T14:48:49,2420,42.8014,5.9826,13.2979,4.35476,2453.725,36.1914
2023-11-08T14:51:49,2420,42.8014,5.9826,13.2997,4.35557,2453.740,36.1973
2023-11-08T14:54:49,2420,42.8014,5.9826,13.2999,4.35466,2453.725,36.1887
2023-11-08T14:57:49,2420,42.8014,5.9826,13.2992,4.35531,2453.717,36.1954
2023-11-08T15:00:49,2420,42.8014,5.9826,13.2983,4.35548,2453.740,36.1978
2023-11-08T15:03:49,2420,42.8014,5.9826,13.2983,4.35436,2453.740,36.1873
2023-11-08T15:06:49,2420,42.8014,5.9826,13.2986,4.35497,2453.740,36.1927
2023-11-08T15:09:49,2420,42.8014,5.9826,13.2988,4.35490,2453.762,36.1918
2023-11-08T15:12:49,2420,42.8014,5.9826,13.3001,4.35577,2453.740,36.1988
2023-11-08T15:15:49,2420,42.8014,5.9826,13.2993,4.35526,2453.762,36.1948
2023-11-08T15:18:49,2420,42.8014,5.9826,13.3011,4.35514,2453.748,36.1920
2023-11-08T15:21:49,2420,42.8014,5.9826,13.2993,4.35508,2453.762,36.1930
2023-11-08T15:24:49,2420,42.8014,5.9826,13.3000,4.35500,2453.717,36.1917
2023-11-08T15:27:49,2420,42.8014,5.9826,13.3016,4.35485,2453.740,36.1888
2023-11-08T15:30:49,2420,42.8014,5.9826,13.2995,4.35614,2453.785,36.2028
2023-11-08T15:33:49,2420,42.8014,5.9826,13.2996,4.35437,2453.762,36.1862
2023-11-08T15:36:49,2420,42.8014,5.9826,13.3005,4.35578,2453.740,36.1985
2023-11-08T15:39:49,2420,42.8014,5.9826,13.2993,4.35386,2453.807,36.1817
2023-11-08T15:42:49,2420,42.8014,5.9826,13.2995,4.35529,2453.815,36.1948
2023-11-08T15:45:49,2420,42.8014,5.9826,13.2994,4.35220,2453.785,36.1661
2023-11-08T15:48:49,2420,42.8014,5.9826,13.2988,4.35404,2453.785,36.1838
2023-11-08T15:51:49,2420,42.8014,5.9826,13.2989,4.35447,2453.740,36.1878
2023-11-08T15:54:49,2420,42.8014,5.9826,13.2992,4.35449,2453.740,36.1877
2023-11-08T15:57:49,2420,42.8014,5.9826,13.3000,4.35708,2453.762,36.2112
2023-11-08T16:00:49,2420,42.8014,5.9826,13.3029,4.35536,2453.762,36.1923
2023-11-08T16:03:49,2420,42.8014,5.9826,13.2978,4.35511,2453.762,36.1948